Dewpoint
72 71 71 70 70 69 70 67 56 61 60 54 56 58 56 63 63 61 61 63 62 65 67 67 66 64 63 63 64 64 64 58 63 52 50 66 70 71 73 73 73 73 74 74 74 74 75 76 76 76 76 77 77 77 77 77 76 77 76 76 76 76 76 76 75 76 76 75 75 75 75 75 75 75 75 75 75 75 75 75 75 75 75 75 75 75 74 74 75 75 75 75 75 75 75 75 75
71 70 70 69 68 70 64 66 58 57 58 55 56 59 59 62 62 60 61 62 64 66 69 68 66 66 66 66 64 61 63 66 66 66 68 70 71 72 73 73 73 73 74 74 74 74 74 75 77 76 77 77 76 77 77 77 76 77 76 76 76 76 76 76 76 76 75 75 75 75 75 75 75 75 75 75 75 75 75 75 75 75 75 75 74 75 74 74 75 75 75 75 74 74 74 75 74
70 70 69 69 68 69 66 65 55 56 54 52 55 59 62 60 60 62 63 65 67 67 67 66 67 65 66 66 62 63 61 67 67 67 68 71 70 71 73 73 73 73 74 74 74 74 75 76 77 77 76 77 77 76 76 77 77 77 76 76 76 76 76 76 76 75 75 75 75 75 75 75 75 75 75 76 75 75 75 75 75 75 75 75 75 75 75 75 75 75 75 75 75 75 75 75 74
70 69 68 69 66 66 62 62 58 56 54 55 55 60 61 61 61 63 65 67 67 66 66 64 65 64 65 62 62 64 63 64 68 68 68 69 70 71 72 73 73 73 74 74 74 75 75 76 77 77 77 76 76 76 76 76 77 76 76 76 76 76 76 76 76 75 75 75 75 75 75 75 75 75 75 75 75 75 75 75 75 75 75 75 75 75 74 74 74 75 75 75 75 74 74 74 74
70 72 72 69 65 61 62 60 59 59 54 56 55 60 61 62 63 64 65 67 66 67 65 65 64 65 67 63 63 62 63 67 67 68 68 70 71 72 72 73 73 73 73 74 75 75 75 77 77 77 76 76 76 76 76 76 76 76 76 75 75 75 75 75 75 75 75 75 75 75 75 75 75 75 75 75 75 75 75 75 75 75 75 75 75 75 75 75 74 75 75 74 74 74 74 74 74
72 72 72 69 64 67 65 58 57 57 59 61 58 59 62 63 63 64 64 67 67 67 67 66 62 62 61 63 64 64 66 64 67 68 69 69 71 72 72 73 72 73 73 74 75 75 76 77 77 76 76 76 76 76 76 76 76 76 75 75 75 76 75 75 75 75 75 75 75 75 75 76 76 75 75 75 75 75 75 75 75 75 75 75 75 75 75 74 76 76 75 74 74 74 74 74 74
69 69 68 68 67 67 58 57 56 57 61 62 61 61 63 63 65 65 65 65 66 67 67 63 62 61 61 63 64 65 67 67 67 68 69 70 71 72 72 72 72 72 73 74 74 75 76 77 76 76 76 76 76 76 76 76 75 76 76 76 76 76 75 75 74 74 75 75 75 76 76 75 76 75 75 75 75 75 75 75 75 75 74 75 75 75 75 75 75 76 75 74 74 74 74 74 74
71 70 66 63 61 62 57 58 57 59 61 62 63 62 63 64 65 64 64 63 62 64 64 61 62 61 61 63 62 66 67 69 68 69 69 70 71 71 71 71 71 72 73 74 75 75 77 76 76 76 76 76 76 76 76 76 76 76 76 76 75 75 75 75 75 75 75 75 75 75 75 76 75 75 75 74 74 75 75 75 75 75 74 75 75 75 75 75 75 74 74 74 74 74 74 74 74
69 67 69 65 58 60 58 57 58 61 62 62 63 66 66 66 66 65 62 64 63 66 65 61 61 60 61 63 63 66 67 68 69 70 69 70 70 70 70 71 72 72 73 74 74 75 75 76 76 76 76 76 76 76 76 76 76 76 76 76 76 75 75 75 75 75 75 76 76 75 76 76 75 75 75 74 74 74 75 75 75 75 74 74 75 75 75 74 74 74 74 74 74 74 74 74 74
68 66 63 61 62 56 57 56 57 60 62 63 64 64 65 66 65 66 63 63 64 64 61 61 61 61 63 62 64 65 66 68 68 68 68 68 69 69 71 72 72 73 73 74 75 75 75 77 76 76 76 76 76 76 76 76 76 76 76 76 75 75 75 75 75 75 75 75 76 75 76 76 75 75 75 75 75 75 75 75 75 75 75 75 75 75 75 74 74 74 74 74 74 74 74 75 74
65 66 69 60 57 54 53 56 58 62 62 65 65 67 67 68 65 64 63 64 65 64 61 61 61 61 62 62 64 67 67 68 67 66 67 68 67 69 71 72 72 73 73 74 74 75 75 75 76 76 76 76 76 76 76 76 76 76 76 75 75 75 75 75 75 75 75 75 75 76 76 76 76 75 75 75 75 75 75 74 75 75 75 75 75 75 74 74 74 74 74 74 74 74 74 74 74
63 64 63 56 55 54 56 57 58 61 61 63 64 66 67 66 66 64 63 62 63 62 60 61 61 62 61 62 64 66 67 67 66 66 67 66 67 70 71 72 73 73 74 74 74 74 75 75 75 76 76 76 76 76 76 76 76 76 76 76 75 75 75 75 76 75 75 75 75 76 75 76 75 75 75 75 75 75 75 75 74 75 75 75 74 73 73 74 74 74 74 74 74 74 74 74 74
63 64 60 57 56 57 58 58 59 60 63 63 64 67 69 65 65 65 65 64 63 60 61 64 62 62 60 62 65 66 66 66 66 66 66 66 68 70 71 72 73 73 74 74 74 74 74 75 75 75 76 76 76 76 76 76 76 76 76 76 75 75 75 75 75 75 75 75 75 75 75 76 75 76 75 75 75 75 75 75 75 75 74 74 74 74 74 74 74 74 74 74 74 74 74 74 74
62 64 61 56 60 59 58 57 58 57 60 62 66 67 68 66 66 66 66 64 62 61 62 62 63 62 61 63 64 64 65 65 66 65 65 66 69 71 71 72 72 73 73 74 74 74 74 74 75 75 75 75 75 76 76 76 76 76 76 75 75 75 75 75 75 75 75 75 75 75 75 75 75 76 75 75 74 75 75 76 75 75 75 74 73 74 73 73 74 74 74 74 74 75 74 74 73
62 66 62 58 57 58 59 55 56 57 59 63 65 66 66 66 68 68 66 63 63 66 62 63 62 61 60 61 62 63 64 64 65 65 65 68 70 70 71 71 72 73 73 73 74 74 74 74 74 75 75 75 75 75 75 76 76 76 76 75 75 75 75 75 75 75 75 75 75 75 75 75 75 75 75 74 74 75 75 75 75 75 75 74 74 73 73 73 73 73 74 73 74 75 75 74 74
62 65 62 57 55 56 57 60 57 58 60 63 64 67 66 67 68 66 66 67 64 64 62 61 62 63 61 61 62 63 64 64 64 65 67 68 69 69 70 71 72 72 73 73 73 74 74 74 75 75 75 75 75 75 75 75 76 76 76 76 75 75 75 75 75 75 75 75 75 75 75 75 75 74 76 74 75 74 75 74 75 74 74 74 74 74 74 74 73 73 73 73 74 74 75 74 74
62 65 57 55 55 56 56 59 57 56 62 64 65 66 64 64 67 69 70 69 64 62 63 62 61 62 61 62 63 63 64 64 64 65 66 67 68 69 70 71 71 72 72 73 73 73 74 74 74 74 74 74 75 75 75 75 75 76 75 75 75 75 75 75 75 75 74 75 75 75 76 75 75 75 74 74 75 74 74 74 74 74 74 74 75 74 74 73 73 73 73 73 74 75 74 74 75
61 58 56 54 56 56 57 57 57 60 61 63 64 66 64 62 64 68 68 66 66 67 65 63 62 61 61 63 63 63 64 63 63 63 64 65 67 68 69 70 70 71 72 72 73 73 74 74 74 74 74 74 75 75 75 75 75 75 74 75 75 74 75 74 74 75 75 75 75 76 75 76 74 74 74 75 75 75 74 74 74 74 74 74 74 74 74 74 74 74 74 74 74 75 75 73 75
57 58 57 54 57 56 59 59 60 61 61 64 65 66 66 64 65 67 65 64 65 64 64 61 61 61 61 63 63 63 63 62 63 62 63 64 66 67 68 69 70 70 71 71 72 73 74 74 74 74 74 74 75 75 75 75 75 75 75 75 75 75 76 77 76 76 75 75 75 75 76 75 75 75 75 76 77 75 75 75 74 74 74 74 74 73 74 74 74 74 74 74 74 74 74 72 73
55 59 56 56 57 58 57 60 62 61 64 65 65 65 66 65 65 66 64 62 65 63 60 60 60 59 60 61 62 62 62 61 62 62 63 64 65 66 67 68 69 70 70 70 72 73 74 74 74 74 74 74 74 74 75 75 74 74 74 75 75 75 75 76 75 75 75 75 75 75 75 75 75 74 76 75 75 74 74 75 75 75 74 74 74 75 74 75 75 75 75 75 77 77 74 73 73
52 53 53 55 57 56 57 64 62 62 64 63 64 64 63 64 64 64 64 62 63 64 61 60 60 59 59 60 61 62 60 60 61 61 63 63 64 65 67 68 69 69 70 70 72 73 73 73 73 73 74 74 74 74 74 74 74 74 74 74 74 74 74 74 74 75 75 75 75 75 75 75 74 74 74 74 73 74 73 74 74 74 74 74 75 73 73 74 74 73 74 76 73 74 74 74 73
50 51 52 52 57 55 61 61 61 62 62 64 64 61 62 65 64 63 63 60 59 61 60 61 60 60 59 59 60 61 58 60 60 61 62 62 63 64 65 67 68 68 69 70 71 72 72 73 73 73 74 74 74 74 74 75 75 74 74 74 74 74 74 74 74 75 75 75 75 75 75 74 74 73 73 73 73 73 73 73 73 73 73 73 75 73 72 72 72 73 73 73 74 74 74 73 72
49 49 51 52 52 56 58 60 61 62 62 63 62 62 63 63 62 61 63 63 66 67 61 61 61 60 59 60 60 60 57 59 59 59 60 61 62 64 64 65 66 67 69 70 71 71 72 72 73 73 73 73 74 74 74 75 74 74 74 74 74 74 74 74 74 75 75 75 75 75 74 74 73 73 73 73 73 73 73 73 73 73 73 73 74 73 72 73 73 73 73 73 73 73 73 73 73
49 47 48 49 52 52 56 58 61 61 62 62 61 63 63 62 61 61 62 63 65 67 62 61 61 60 59 59 59 58 57 58 57 58 60 61 62 62 63 64 65 67 69 69 70 71 72 72 73 73 73 73 73 73 73 74 73 73 73 75 74 74 74 74 74 74 75 75 75 75 76 74 73 73 73 73 73 73 73 73 73 73 73 73 74 74 73 73 73 74 73 73 73 73 73 74 74
47 47 47 47 53 54 54 58 59 60 60 62 62 61 62 61 63 61 61 61 64 65 61 61 61 60 59 59 59 57 57 57 57 58 59 60 60 61 62 63 64 67 67 68 70 70 71 72 73 72 73 73 73 73 73 73 73 72 73 74 73 75 73 74 74 75 75 75 75 76 76 74 73 73 73 73 73 73 73 73 73 73 73 73 74 73 73 73 73 73 73 73 73 73 73 73 74
45 45 46 46 49 53 52 58 59 60 61 62 61 60 62 63 61 59 60 61 63 65 61 61 60 59 59 58 58 57 57 56 57 57 57 58 59 59 60 61 64 66 67 68 69 70 71 72 72 72 72 72 72 72 73 72 72 72 73 73 73 75 73 74 75 75 74 74 75 75 76 74 73 73 73 73 73 72 73 73 73 73 73 73 74 72 74 73 73 73 73 73 74 73 73 73 74
39 37 38 43 45 49 51 56 58 60 59 60 58 58 60 62 59 59 59 61 63 63 61 61 60 59 58 58 59 57 56 56 56 57 57 57 58 58 59 60 63 65 67 67 69 70 71 72 72 72 72 73 72 72 72 72 73 71 72 72 72 74 73 74 75 74 74 74 75 75 75 75 74 73 73 72 73 73 73 73 73 73 73 74 74 74 74 74 74 73 73 73 73 74 74 73 74
35 33 31 30 29 41 50 55 58 59 58 58 57 58 60 61 61 59 58 61 62 59 60 61 60 59 58 58 60 58 57 56 57 57 56 57 57 57 58 60 62 64 66 67 68 69 71 71 71 71 71 72 73 72 73 72 73 71 71 71 72 73 73 73 73 73 75 73 74 75 75 75 75 73 73 73 73 73 73 73 73 73 73 74 74 74 74 75 75 75 75 74 74 75 75 74 74
34 32 28 28 29 27 41 50 57 58 57 58 57 58 57 59 57 58 59 60 61 59 59 60 60 60 59 59 60 59 57 57 59 57 57 58 57 57 58 60 62 63 65 66 67 69 70 70 70 71 71 72 72 72 72 72 72 72 70 70 72 72 72 72 73 73 72 73 74 74 74 74 75 73 73 74 75 73 73 73 72 73 73 73 74 75 74 74 74 73 74 75 73 73 73 73 74
34 30 26 25 25 25 26 42 56 56 57 58 58 53 54 56 58 58 59 59 58 58 58 59 60 60 59 60 60 60 58 58 59 59 58 58 58 58 58 60 62 62 63 65 66 68 70 70 70 71 71 71 71 72 72 72 72 70 70 69 73 72 71 72 73 72 73 73 73 74 74 75 74 74 73 74 74 73 73 73 73 73 73 74 74 73 73 73 73 73 73 74 75 73 72 73 73
32 30 28 23 25 26 30 35 53 53 56 57 54 50 53 55 57 57 58 58 57 57 58 59 59 60 59 60 60 60 59 60 60 60 59 59 58 59 58 60 61 62 63 63 66 68 69 69 70 70 72 71 72 71 72 71 71 69 68 69 71 70 71 71 72 72 72 72 73 73 74 75 74 74 74 74 73 73 73 73 72 73 74 74 73 74 73 73 73 73 75 73 73 73 73 73 72
32 29 25 22 24 26 29 32 36 41 54 55 51 49 51 54 55 56 58 57 57 56 57 58 59 59 59 59 60 59 60 60 60 60 60 60 58 59 59 61 62 62 62 63 65 67 67 69 70 70 71 70 71 71 71 71 69 69 68 72 70 70 71 71 71 72 72 72 73 73 73 74 74 74 74 73 73 73 73 73 73 74 74 73 74 74 73 72 73 73 74 73 72 72 72 71 73
30 28 26 24 24 23 25 27 29 43 53 54 49 47 51 52 54 56 57 57 56 55 56 56 58 58 58 58 59 59 59 60 60 60 60 60 59 59 60 62 62 62 62 63 64 66 66 68 70 70 70 70 70 70 71 70 68 69 69 70 70 70 70 70 71 72 72 72 72 72 73 74 74 73 73 73 73 73 73 73 73 74 74 73 73 72 72 73 73 73 73 74 72 71 71 71 70
30 28 26 24 22 23 23 26 28 31 52 51 50 49 51 53 55 56 57 57 56 55 55 55 56 56 56 57 58 58 58 59 60 61 60 60 59 58 59 64 63 63 63 63 63 64 64 67 68 69 70 70 70 70 70 69 67 70 70 69 72 70 71 71 72 72 72 72 72 72 73 74 74 73 73 73 73 74 73 73 74 73 73 73 72 71 71 72 72 72 72 73 73 71 70 70 69
29 30 27 25 22 22 23 24 28 28 31 44 49 49 51 54 55 56 56 57 56 55 55 55 56 55 56 56 56 56 57 59 59 61 60 60 59 58 59 62 62 63 63 63 63 63 65 66 68 69 69 69 69 70 70 70 68 70 70 69 70 70 71 72 72 72 72 73 73 72 73 74 74 73 73 74 74 75 73 73 73 74 73 72 72 71 71 72 72 71 70 71 73 73 71 70 69
28 29 27 25 21 21 19 20 21 28 29 34 46 47 50 53 54 55 56 56 56 56 56 56 56 56 56 55 56 56 56 58 59 60 59 59 59 58 58 60 61 62 63 63 63 62 64 66 67 68 68 68 69 69 70 69 68 70 68 68 68 70 70 72 72 72 72 73 73 73 73 73 73 73 73 74 75 74 73 73 73 74 73 73 72 71 71 71 70 70 70 70 70 72 73 71 69
33 32 31 28 23 21 19 17 17 20 30 31 44 47 50 53 54 55 56 56 56 56 56 56 57 56 56 55 55 56 56 56 58 59 59 59 59 58 58 60 60 61 62 62 62 63 64 65 66 66 67 69 69 68 69 69 67 68 67 66 65 69 70 71 71 72 73 74 74 73 73 73 73 74 74 74 75 75 74 74 74 73 73 73 72 72 72 72 71 71 71 72 71 69 69 70 69
32 31 30 28 26 24 23 22 21 19 30 31 41 47 50 52 53 54 55 55 55 56 57 57 58 57 56 55 55 56 56 57 57 58 58 59 59 58 58 59 61 60 61 60 62 63 64 65 65 65 66 69 69 68 68 69 67 67 67 64 66 69 70 71 70 71 72 74 74 74 74 73 73 74 75 74 75 75 74 74 73 73 73 72 72 73 73 75 74 72 73 71 72 70 66 67 67
32 31 29 26 25 23 22 21 20 17 17 28 39 47 49 51 53 54 55 55 56 57 58 57 58 57 57 56 56 56 56 57 56 57 57 58 58 58 58 59 58 59 59 59 62 64 64 64 65 65 66 68 68 68 68 68 68 69 67 66 66 69 70 70 70 71 73 74 74 74 74 74 74 75 75 75 75 75 75 75 74 73 73 73 72 72 73 74 74 74 73 70 66 68 68 68 67
31 30 28 25 24 21 19 20 17 13 13 27 38 46 48 50 53 54 55 55 56 58 58 58 58 57 57 56 56 56 56 57 56 56 56 57 58 59 58 59 58 58 59 59 62 64 64 65 64 65 66 68 68 68 69 69 69 70 69 67 67 68 69 70 70 71 72 73 74 75 75 75 75 76 75 75 75 75 74 75 74 74 73 74 73 72 72 73 73 73 72 71 66 62 63 64 70
27 26 25 23 21 20 18 18 17 15 13 14 36 45 48 50 51 52 54 56 56 57 58 58 59 58 58 58 58 57 57 57 57 57 56 57 58 58 59 59 58 58 58 59 63 64 64 64 64 64 67 68 68 69 69 70 71 70 69 68 69 68 69 69 69 70 72 74 74 75 75 76 76 76 76 75 76 75 74 74 75 74 73 74 75 73 72 72 72 73 72 72 67 63 61 64 66
26 23 21 21 21 20 19 18 16 13 12 13 38 43 46 49 50 51 52 54 55 57 57 58 58 58 58 58 57 58 57 57 57 57 56 57 57 58 59 59 57 57 58 59 63 64 65 64 64 65 67 68 68 68 69 70 70 69 67 66 65 65 65 66 67 69 71 73 73 74 75 76 76 76 75 76 76 76 75 75 75 75 75 75 76 74 73 73 73 73 72 71 70 68 63 65 63
23 23 20 19 19 19 19 18 16 16 16 20 18 36 39 47 49 50 51 53 55 57 57 57 58 58 58 58 57 57 57 57 57 57 57 56 57 58 59 59 58 57 58 59 63 64 65 65 64 65 66 67 68 69 70 70 69 69 67 65 65 65 65 65 67 69 72 73 73 73 75 76 76 76 75 76 76 76 76 75 75 76 76 75 77 74 74 74 73 73 72 71 71 73 65 63 63
22 22 20 18 17 17 17 16 14 13 20 18 19 30 38 43 47 50 51 52 54 56 56 57 58 58 58 58 58 57 57 57 57 57 57 56 57 58 58 59 58 58 57 59 62 64 66 65 65 66 67 68 69 69 69 70 68 68 67 66 65 65 64 65 66 67 71 73 71 72 74 74 75 75 75 75 76 76 76 75 75 77 76 75 77 74 74 75 74 74 73 72 73 72 65 63 63
23 22 22 21 19 18 17 16 14 12 12 13 16 22 23 40 46 49 50 51 53 55 55 56 57 58 58 58 58 58 57 57 57 57 57 57 57 57 59 59 59 59 55 58 62 64 66 66 66 67 68 68 69 69 69 69 68 68 68 66 66 66 64 65 67 68 70 72 70 72 73 73 74 74 74 75 75 75 76 75 76 76 76 75 77 75 75 75 74 73 73 71 70 71 68 67 66
24 24 23 21 20 18 20 17 12 17 14 12 20 15 15 21 38 47 49 51 52 53 55 55 56 57 58 58 58 58 58 57 57 57 57 57 57 57 58 59 60 60 56 59 62 65 66 66 66 67 68 68 69 70 70 69 68 69 67 67 65 66 66 65 65 66 69 70 70 70 72 73 73 73 74 74 74 75 75 75 75 76 76 75 77 76 75 75 74 74 73 72 72 69 73 70 67
24 23 22 21 19 20 32 31 27 20 13 14 15 13 10 10 32 46 47 49 52 53 54 55 56 57 58 58 58 58 58 57 57 57 57 58 58 58 59 59 60 60 58 58 62 64 66 66 66 67 68 69 69 69 70 69 68 68 67 67 65 66 65 65 64 66 67 67 69 69 71 72 72 72 73 73 74 74 75 75 75 75 76 76 77 75 75 75 75 74 74 73 72 70 71 70 73
23 21 19 19 20 23 23 28 30 15 19 25 15 11 10 11 24 41 47 49 52 53 53 54 55 56 57 58 58 58 58 58 57 57 57 58 58 58 59 59 60 60 59 58 61 64 66 66 67 67 68 69 69 69 70 69 69 68 67 68 66 66 66 64 63 64 66 66 68 69 71 72 72 71 74 73 74 74 75 75 75 75 75 75 76 75 75 75 75 75 74 73 72 71 71 70 70
20 20 22 20 24 20 18 21 15 16 16 23 16 13 14 17 17 34 46 47 50 52 53 54 55 55 56 58 58 58 58 58 57 57 57 57 58 58 59 59 60 61 60 58 60 63 65 66 67 67 68 69 70 69 69 69 69 69 67 67 67 66 68 65 63 62 66 65 67 69 70 71 72 71 73 73 74 74 74 74 74 74 74 74 74 75 75 75 75 76 75 74 73 72 72 71 70
18 19 24 20 18 18 15 24 21 19 19 20 17 16 17 22 15 21 42 45 47 51 52 54 55 55 56 57 58 58 58 58 58 57 57 57 58 58 59 59 60 61 60 59 60 63 64 66 66 67 68 69 70 69 69 69 69 69 68 67 68 67 69 65 62 61 65 66 68 69 70 71 71 71 73 73 73 74 74 74 75 74 73 74 74 75 74 75 75 75 75 74 73 73 72 72 71
19 18 18 22 22 19 17 19 13 13 16 14 17 15 22 11 20 23 22 33 46 49 51 52 55 55 56 57 58 57 58 58 58 58 57 58 58 59 59 60 60 61 61 59 60 63 64 65 66 67 68 69 70 69 68 69 69 69 68 67 68 67 69 66 63 63 64 67 68 69 70 71 71 71 72 74 74 75 74 74 74 74 73 73 74 74 74 75 75 75 75 74 74 74 73 73 71
18 19 22 21 21 27 17 26 21 23 18 16 22 19 21 12 28 29 16 20 38 48 50 52 53 55 56 56 57 57 57 58 58 58 58 58 58 59 59 59 60 61 61 60 60 63 63 65 66 66 67 69 70 70 69 68 69 69 69 68 68 68 69 68 65 65 65 66 67 71 70 71 72 72 72 74 74 75 75 74 74 74 74 73 73 73 74 74 75 75 74 74 73 75 73 73 72
21 18 20 19 23 17 23 33 28 27 21 16 31 20 19 19 15 12 14 14 19 42 49 51 52 54 55 56 56 57 57 57 58 58 58 58 58 59 59 59 60 61 61 61 61 63 63 64 66 66 66 69 70 70 69 69 69 69 69 68 68 68 67 68 66 65 64 65 66 70 71 71 72 72 73 74 74 74 75 74 74 74 74 73 73 73 73 74 74 74 74 74 73 74 74 73 73
18 18 18 19 21 20 21 15 25 20 15 20 23 19 20 16 20 27 14 11 9 17 45 50 51 53 54 55 56 56 57 57 58 58 59 59 59 59 59 59 59 60 61 62 62 63 64 64 65 66 66 67 69 70 69 69 69 69 69 69 68 68 67 67 67 66 65 65 65 68 71 72 72 73 73 73 73 73 74 76 74 74 74 74 73 73 73 74 74 74 74 74 74 74 74 74 74
17 16 20 18 21 20 25 21 15 14 17 18 19 22 27 20 20 21 13 11 9 11 34 49 51 52 53 54 55 56 56 56 57 58 59 59 59 59 59 59 59 60 62 62 63 63 64 65 65 65 66 66 68 70 70 70 69 69 70 69 68 68 68 67 67 68 68 65 64 64 69 71 72 73 73 73 73 73 73 75 74 73 74 74 73 74 74 74 73 73 74 74 74 74 73 73 74
17 17 15 18 22 26 22 21 25 21 20 21 19 25 22 24 17 15 12 12 11 9 12 48 50 51 53 54 54 55 55 56 56 57 58 60 60 59 59 59 59 59 61 62 63 64 64 65 66 65 66 67 67 69 70 70 69 69 69 70 69 69 69 68 67 68 69 67 65 64 65 69 71 72 72 72 72 72 72 74 74 73 73 74 74 74 74 74 74 73 73 73 74 74 73 73 73
16 15 16 22 24 22 22 25 21 19 23 20 22 18 27 30 36 40 42 42 33 16 10 43 49 51 53 54 54 55 55 55 56 57 58 59 60 60 60 60 60 60 61 62 63 64 65 66 66 66 66 67 67 68 69 70 70 69 70 69 69 69 68 68 67 67 69 69 67 67 64 65 70 71 71 72 72 71 72 73 73 73 73 73 74 73 74 74 74 73 73 74 73 74 74 73 73
17 16 20 22 22 21 20 20 26 21 20 20 19 18 29 30 44 43 44 45 41 38 30 41 48 50 52 53 54 55 55 55 55 56 58 59 61 61 61 61 61 61 61 62 63 64 65 66 67 67 66 67 67 67 69 70 70 70 69 69 69 69 69 68 67 66 67 69 69 68 67 66 67 69 71 71 71 71 72 72 73 73 73 73 74 73 74 73 74 74 73 74 74 73 73 73 74